Wind_Speed
7 6 5 4 4 5 6 3 4 8 6 9 10 11 8 12 12 4 3 5 3 6 8 8 9 9 9 8 9 10 10 9 10 11 12 13 14 14 14 13 13 12 11 9 8 8 8 8 7
7 7 7 6 5 5 2 0 3 10 10 8 10 12 12 13 12 13 10 8 8 7 9 10 11 10 9 9 9 10 9 9 10 11 13 14 14 14 13 12 12 12 12 11 9 10 11 10 9
5 6 6 5 5 2 6 5 11 14 9 9 10 10 13 12 9 11 9 8 10 9 7 10 11 11 11 12 11 11 11 10 11 12 14 14 15 15 15 14 13 13 13 12 12 12 12 12 12
3 5 6 8 6 5 11 11 14 16 12 11 11 12 13 8 11 11 12 9 8 10 10 9 10 11 12 13 13 13 13 12 12 13 14 16 16 17 17 17 17 17 15 15 14 14 14 14 14
2 4 7 6 4 7 8 10 15 17 14 14 13 14 14 10 11 12 12 12 10 9 10 11 11 12 13 14 15 16 16 15 15 16 17 19 19 19 19 19 19 19 18 17 15 16 16 17 17
2 4 6 8 8 9 8 11 13 14 14 13 15 15 13 11 14 14 15 14 13 12 12 12 13 14 15 16 17 17 17 17 16 17 17 19 20 21 21 21 22 22 20 19 18 18 19 19 19
5 6 7 9 5 6 8 12 14 15 14 13 13 15 11 8 13 15 16 14 13 14 15 15 15 16 17 17 18 19 19 19 18 18 19 18 19 19 21 22 23 24 23 23 23 23 22 22 22
7 8 7 7 7 9 9 14 14 16 16 15 14 10 11 12 12 14 14 15 16 18 18 18 19 19 19 19 20 21 22 21 20 20 20 19 19 20 21 23 25 26 27 27 26 25 25 24 24
10 10 8 10 9 11 13 17 19 21 20 20 18 17 14 14 14 15 15 14 14 16 18 19 20 22 22 22 22 23 24 23 23 22 22 21 20 20 20 21 24 26 26 27 26 26 25 25 26
13 16 10 11 12 16 17 19 22 24 21 22 21 18 19 19 17 16 16 15 15 16 18 19 20 21 23 24 25 25 26 25 26 26 25 23 22 21 20 20 20 21 23 25 25 26 25 25 26
19 18 13 14 17 19 19 21 24 24 23 18 21 22 23 22 21 20 19 19 18 19 19 19 20 21 23 25 26 27 27 27 28 28 26 25 24 23 23 21 21 21 22 23 24 25 24 24 24
26 22 19 19 19 21 20 22 25 27 23 25 24 24 25 23 21 21 21 21 23 24 22 22 22 22 24 26 26 28 29 29 29 28 28 28 26 25 24 23 23 22 23 23 23 23 24 24 24
29 27 25 25 26 23 23 26 28 25 15 17 21 24 23 21 20 20 21 23 25 25 25 25 25 25 25 26 27 28 29 29 31 30 30 29 29 28 26 26 25 25 25 25 25 24 25 25 25
31 33 30 30 28 25 31 27 25 22 15 19 22 23 22 24 22 23 24 24 25 25 27 28 29 30 29 27 28 28 30 31 32 31 31 31 31 30 30 29 29 28 27 27 26 27 27 26 25
32 32 32 34 33 31 26 35 36 23 25 27 23 24 26 28 27 28 27 28 28 29 31 32 33 34 35 30 29 30 30 31 32 32 32 33 33 33 33 33 33 32 31 29 27 28 28 27 27
36 37 40 38 38 34 32 43 38 32 32 33 30 29 29 31 31 30 31 31 32 35 37 37 38 38 39 37 32 32 32 32 33 33 33 34 34 34 35 35 34 34 33 31 29 29 28 28 27
40 40 45 45 44 39 35 44 42 39 40 37 37 37 36 35 34 32 33 30 31 34 37 36 34 35 39 39 37 36 35 34 33 34 33 34 34 36 37 37 36 36 34 32 31 30 29 29 28
45 43 43 43 44 47 43 51 50 44 45 44 46 44 42 39 35 31 32 31 34 35 35 35 34 33 35 39 40 40 38 35 34 32 32 33 34 35 36 36 36 36 35 34 32 31 30 30 29
45 45 47 45 42 50 54 57 55 51 53 54 49 45 43 41 32 30 30 32 38 37 36 35 33 31 34 34 37 39 37 33 30 29 30 31 32 33 35 36 36 36 35 33 33 32 32 32 31
44 47 49 53 48 50 55 61 58 57 57 54 51 46 40 38 34 35 30 32 34 32 29 30 29 30 31 32 32 34 33 30 29 29 27 25 25 28 32 34 36 36 35 34 33 32 33 34 35
51 47 54 55 50 50 54 66 62 52 47 44 42 39 36 34 27 19 18 26 26 28 26 23 24 25 28 30 32 32 31 32 28 19 14 15 20 25 30 33 34 35 34 35 34 34 35 36 35
58 49 52 48 39 33 34 41 49 56 50 44 38 31 23 28 18 18 19 24 28 24 23 25 23 26 29 30 29 27 27 25 20 15 13 14 20 24 29 31 33 34 34 34 35 35 36 35 34
45 36 41 42 44 41 26 19 36 36 38 28 13 15 27 19 25 31 28 30 31 27 24 25 26 28 27 25 27 27 28 27 20 15 15 16 17 24 29 31 32 33 34 35 36 36 36 35 34
34 32 34 38 35 19 24 25 51 17 15 15 25 31 28 31 33 29 32 33 31 29 26 21 20 23 20 25 24 26 29 25 23 24 22 20 22 23 27 30 30 32 33 36 38 38 37 36 35
37 36 8 5 3 13 19 26 50 38 37 28 30 40 36 34 31 32 35 32 30 24 23 19 20 20 16 18 23 26 26 28 29 26 25 23 24 24 23 25 29 32 35 37 38 38 37 37 36
32 34 21 7 10 23 29 23 40 37 34 40 32 26 31 35 31 28 35 30 30 23 17 18 21 18 13 18 23 27 30 28 28 26 26 23 25 27 24 24 27 32 35 38 39 39 39 38 38
34 28 39 30 36 8 33 45 52 39 14 19 21 18 24 26 23 27 30 31 29 21 15 15 14 15 22 27 25 29 33 31 27 25 27 28 26 28 27 28 27 29 33 37 39 39 39 38 38
36 34 17 14 5 8 22 25 38 37 27 19 24 19 24 18 21 20 23 26 22 18 12 11 19 25 30 29 30 33 36 34 34 33 31 30 29 30 33 32 31 30 33 36 39 40 39 38 38
33 36 37 30 22 12 16 25 44 42 42 31 22 36 37 29 25 21 16 14 13 18 22 26 30 35 27 26 29 35 38 39 38 36 36 36 36 35 34 35 35 33 34 37 39 41 41 39 39
29 32 38 28 20 27 22 24 57 52 63 56 46 28 20 24 20 16 18 25 26 34 41 41 37 40 34 38 44 41 38 37 42 43 42 42 40 40 39 37 38 36 37 39 41 42 42 41 41
Wind_Direction
219 222 236 263 277 260 281 260 268 310 281 253 249 244 267 259 259 257 212 214 191 212 215 208 215 220 217 221 236 236 238 243 252 257 258 256 255 253 253 253 250 251 250 240 242 246 251 251 247
228 235 247 271 264 266 315 182 280 318 301 271 258 264 267 270 275 277 266 266 265 263 235 231 233 237 235 228 229 237 244 255 260 270 268 266 265 259 255 255 253 253 250 250 241 247 250 252 260
236 236 247 259 256 238 302 294 327 322 305 282 273 277 264 279 275 279 282 270 270 269 252 240 237 241 245 245 241 244 250 256 258 259 263 262 258 254 248 247 251 254 254 251 250 247 252 255 257
248 239 247 267 278 302 299 297 319 324 306 287 287 277 278 277 275 273 279 284 282 277 271 256 243 244 242 241 241 246 249 246 250 259 261 257 253 249 246 245 244 242 242 247 250 253 254 256 260
239 254 247 269 274 323 296 296 316 319 305 298 289 288 286 281 275 274 275 281 277 272 266 263 256 252 247 245 242 243 244 247 255 261 261 260 257 254 252 252 253 252 250 247 244 245 249 252 252
253 276 275 282 278 298 303 298 314 316 309 301 292 287 288 281 280 278 279 276 276 268 266 264 259 258 256 252 249 249 251 257 266 270 265 258 252 251 252 252 252 253 254 254 252 247 246 250 251
269 282 285 305 318 291 310 312 310 305 307 304 287 287 307 300 280 284 286 283 276 272 275 270 264 259 257 259 260 260 262 268 276 280 277 272 267 260 255 253 253 253 251 249 248 247 244 244 245
274 279 281 298 293 306 298 301 302 304 303 299 289 290 309 295 288 285 286 284 279 275 272 272 269 263 260 259 259 258 259 264 270 277 277 272 270 269 267 261 256 254 252 251 250 250 249 249 248
266 266 274 289 277 296 300 298 304 299 293 291 290 293 296 292 286 281 283 283 277 275 272 271 269 267 267 264 264 262 263 265 268 273 274 274 272 272 269 266 262 261 259 257 255 254 253 255 255
266 271 285 279 284 290 287 288 298 295 294 288 295 299 290 284 282 278 277 280 279 276 272 265 265 264 264 264 264 264 266 267 270 273 277 277 274 273 274 274 271 264 262 261 257 256 258 259 261
275 276 282 275 284 288 286 290 289 291 285 298 293 291 282 278 280 280 280 276 275 268 269 271 266 263 261 261 260 260 262 265 268 272 273 272 272 272 272 272 270 269 266 260 260 260 257 258 261
282 284 286 286 285 285 289 286 292 288 296 292 290 286 282 281 285 282 280 279 273 271 271 269 266 262 260 258 259 259 260 262 265 269 271 271 270 272 277 281 285 281 274 269 266 261 262 266 267
278 285 285 289 288 285 287 294 290 287 326 297 288 281 285 283 285 282 278 274 276 279 277 274 267 263 262 261 260 261 261 262 263 266 268 271 273 275 279 282 285 286 282 276 270 269 269 269 271
279 280 283 283 282 286 297 295 275 299 311 297 293 288 282 288 289 282 281 286 278 278 279 274 268 264 261 263 259 259 258 257 259 263 267 271 274 277 280 283 286 288 286 282 278 273 271 271 272
276 278 278 278 284 287 292 283 282 299 301 295 291 290 278 285 287 291 289 283 281 279 276 274 272 264 261 263 258 258 258 258 259 261 263 268 273 279 283 285 287 289 290 286 282 277 273 274 275
273 276 277 288 289 291 290 285 291 295 297 298 294 297 287 280 284 292 292 288 282 279 276 272 268 265 262 261 260 256 255 255 256 259 263 267 271 275 277 280 283 284 285 285 281 278 274 275 274
267 266 273 285 291 288 279 285 287 295 298 294 294 294 292 284 285 298 302 296 280 274 270 268 267 265 257 257 258 256 253 253 253 256 261 265 269 273 276 280 282 283 283 283 281 280 278 278 277
271 266 279 284 286 288 286 284 291 291 293 292 292 293 292 291 293 301 292 280 273 270 267 267 269 262 258 250 249 251 250 252 252 257 261 264 268 272 276 280 282 284 285 285 284 282 280 281 281
283 279 278 280 283 283 283 285 289 291 290 290 288 290 290 287 299 292 286 267 266 267 265 265 262 256 257 257 255 252 252 254 253 255 260 264 268 274 278 281 283 284 284 283 282 283 283 284 284
277 278 277 283 286 284 288 286 287 287 288 290 291 288 287 288 292 291 279 262 263 268 265 263 259 252 254 255 252 244 243 245 242 246 254 265 273 277 279 280 281 282 282 282 281 283 285 287 287
275 275 281 283 291 286 287 284 286 289 288 290 292 294 292 297 285 266 271 271 270 275 273 259 255 247 247 245 244 239 232 230 233 239 251 269 277 278 279 279 279 280 281 281 283 285 286 286 287
274 284 284 285 285 283 290 292 288 291 292 293 298 299 298 304 262 268 285 284 281 276 277 262 251 248 244 244 240 236 232 228 220 229 255 283 292 290 283 280 279 279 279 282 286 286 285 285 284
279 283 280 281 284 290 288 268 292 291 289 303 315 296 306 295 286 276 279 280 279 274 280 261 259 248 239 241 233 230 225 219 223 246 264 280 293 297 284 275 275 277 281 285 286 286 284 283 281
274 272 273 278 280 273 282 254 292 281 295 304 304 297 297 297 294 261 275 278 283 283 274 264 264 241 247 239 241 242 233 226 243 260 267 282 289 294 290 277 277 277 279 282 284 285 284 283 282
264 262 273 269 191 254 279 259 265 284 295 300 298 300 295 290 279 261 275 282 285 279 258 271 252 237 241 255 262 254 249 253 259 261 276 287 290 297 291 277 272 273 273 277 281 282 281 280 280
278 257 220 209 256 274 276 256 275 287 291 302 299 303 290 289 277 265 267 277 283 275 258 267 240 231 251 262 257 253 254 257 260 271 277 287 295 296 290 282 275 272 272 275 280 281 280 280 280
273 249 270 245 255 286 268 272 279 286 278 296 296 335 310 273 268 269 267 271 271 255 249 258 225 279 286 279 255 251 253 257 257 272 277 281 287 290 289 292 287 276 271 274 278 280 281 279 279
259 265 247 209 201 249 268 271 270 284 276 274 291 307 316 322 273 268 258 264 263 252 233 245 284 288 281 269 256 255 256 262 257 265 274 277 280 283 286 290 293 286 278 275 277 280 282 282 281
268 250 247 252 245 253 260 269 274 277 279 279 282 309 309 296 276 263 240 233 229 266 282 289 299 303 279 261 269 265 262 263 261 267 270 272 275 277 280 284 286 286 280 277 279 282 284 284 283
250 261 256 241 246 249 256 259 275 284 280 278 287 306 281 284 275 267 262 271 280 291 291 286 289 289 283 271 266 265 254 256 264 266 265 265 269 271 275 276 277 282 280 280 279 281 282 282 281
Height
3182 3183 3183 3183 3187 3182 3179 3179 3178 3177 3176 3175 3175 3174 3174 3173 3173 3176 3172 3173 3174 3174 3173 3174 3175 3176 3177 3179 3180 3180 3181 3182 3182 3182 3182 3182 3182 3182 3182 3182 3182 3182 3181 3182 3182 3182 3182 3182 3182
3182 3183 3183 3183 3183 3180 3179 3177 3177 3177 3175 3174 3173 3172 3172 3171 3170 3170 3171 3171 3171 3172 3173 3174 3174 3175 3175 3177 3178 3179 3180 3181 3182 3182 3181 3181 3180 3180 3180 3179 3179 3179 3179 3179 3180 3180 3180 3180 3180
3182 3182 3184 3182 3180 3179 3177 3177 3177 3176 3174 3173 3172 3171 3170 3169 3168 3168 3168 3169 3168 3169 3170 3171 3172 3173 3174 3175 3175 3176 3177 3178 3179 3179 3179 3179 3179 3178 3178 3177 3177 3176 3177 3177 3177 3177 3177 3177 3178
3182 3183 3183 3181 3179 3178 3176 3175 3175 3174 3173 3171 3171 3169 3168 3168 3166 3166 3166 3167 3167 3167 3168 3169 3170 3171 3172 3173 3173 3174 3175 3176 3175 3175 3175 3175 3175 3175 3175 3175 3175 3175 3175 3175 3174 3175 3175 3175 3175
3181 3181 3180 3178 3177 3176 3174 3174 3173 3171 3170 3169 3168 3167 3166 3166 3165 3164 3163 3164 3165 3165 3165 3166 3167 3168 3169 3170 3171 3172 3173 3173 3173 3174 3173 3172 3172 3171 3172 3172 3172 3172 3173 3172 3172 3172 3173 3172 3172
3180 3180 3178 3176 3175 3174 3173 3173 3172 3170 3169 3168 3166 3164 3164 3164 3163 3162 3162 3162 3161 3162 3162 3163 3164 3164 3165 3165 3166 3168 3169 3169 3170 3170 3170 3171 3170 3170 3169 3170 3170 3169 3169 3169 3169 3169 3169 3169 3169
3179 3178 3176 3175 3174 3173 3172 3171 3170 3169 3167 3166 3165 3162 3163 3162 3160 3160 3159 3159 3159 3159 3159 3160 3160 3161 3161 3162 3163 3163 3164 3165 3165 3166 3166 3166 3167 3167 3167 3167 3166 3166 3166 3166 3166 3166 3166 3166 3165
3177 3177 3175 3173 3172 3171 3170 3170 3169 3167 3165 3164 3163 3161 3161 3160 3158 3157 3157 3157 3156 3156 3156 3156 3157 3157 3158 3159 3159 3160 3160 3161 3162 3162 3162 3162 3162 3163 3163 3163 3163 3163 3163 3163 3163 3162 3162 3161 3161
3175 3174 3172 3171 3169 3168 3167 3166 3165 3164 3162 3160 3159 3158 3158 3157 3155 3154 3153 3153 3153 3152 3152 3153 3153 3153 3153 3154 3155 3155 3156 3157 3157 3158 3158 3158 3158 3158 3158 3158 3158 3158 3157 3158 3157 3157 3157 3157 3157
3173 3170 3170 3169 3167 3165 3164 3162 3161 3160 3158 3156 3155 3155 3154 3153 3152 3151 3151 3150 3149 3149 3149 3148 3148 3149 3149 3150 3150 3151 3151 3152 3152 3153 3153 3153 3153 3153 3153 3153 3153 3153 3152 3152 3152 3152 3152 3152 3151
3168 3167 3167 3166 3164 3162 3160 3158 3157 3155 3153 3154 3152 3151 3149 3148 3147 3147 3147 3146 3146 3145 3145 3145 3144 3144 3145 3145 3146 3146 3147 3148 3148 3149 3149 3149 3149 3149 3149 3149 3148 3147 3147 3148 3148 3147 3147 3147 3147
3163 3163 3163 3162 3161 3158 3157 3155 3152 3150 3148 3148 3148 3146 3144 3144 3143 3143 3142 3142 3141 3140 3140 3140 3139 3139 3139 3139 3140 3141 3141 3142 3143 3143 3144 3144 3144 3144 3143 3143 3142 3142 3143 3142 3142 3142 3142 3141 3142
3158 3158 3158 3156 3154 3154 3153 3151 3148 3144 3145 3143 3142 3140 3140 3139 3140 3138 3138 3136 3136 3135 3135 3135 3134 3134 3134 3133 3134 3135 3136 3137 3137 3137 3137 3137 3138 3138 3138 3138 3137 3137 3137 3136 3136 3135 3136 3136 3135
3155 3153 3152 3150 3149 3149 3146 3144 3142 3142 3143 3140 3138 3136 3135 3134 3134 3132 3132 3132 3130 3130 3129 3128 3127 3127 3127 3128 3128 3129 3129 3130 3130 3131 3132 3132 3132 3132 3132 3132 3132 3131 3131 3130 3130 3130 3129 3130 3130
3149 3147 3146 3142 3144 3142 3141 3135 3133 3139 3136 3134 3133 3131 3130 3128 3127 3126 3126 3124 3124 3123 3121 3121 3120 3120 3120 3121 3122 3122 3123 3123 3124 3125 3125 3125 3125 3125 3126 3126 3125 3125 3124 3124 3124 3124 3124 3124 3124
3144 3142 3138 3137 3136 3135 3135 3124 3127 3131 3128 3126 3125 3124 3123 3121 3119 3118 3117 3116 3115 3113 3112 3111 3111 3111 3111 3113 3114 3115 3116 3116 3117 3118 3118 3119 3119 3119 3119 3119 3118 3118 3117 3117 3118 3117 3117 3117 3117
3136 3131 3130 3130 3130 3128 3125 3118 3119 3120 3119 3116 3116 3115 3113 3111 3110 3108 3106 3105 3104 3102 3101 3101 3100 3101 3102 3103 3105 3106 3107 3108 3110 3111 3112 3111 3111 3112 3111 3111 3110 3110 3110 3110 3110 3110 3109 3109 3109
3128 3123 3125 3125 3125 3117 3114 3106 3111 3114 3110 3107 3105 3105 3103 3101 3097 3099 3097 3095 3094 3093 3092 3091 3092 3092 3091 3092 3094 3096 3098 3100 3102 3103 3104 3104 3104 3104 3104 3103 3102 3102 3102 3102 3101 3101 3101 3101 3101
3126 3122 3117 3118 3121 3111 3104 3097 3098 3103 3099 3096 3096 3095 3092 3091 3089 3087 3087 3085 3082 3082 3082 3082 3082 3083 3082 3082 3084 3086 3090 3094 3095 3096 3097 3098 3097 3097 3096 3095 3095 3094 3094 3094 3093 3093 3093 3092 3092
3119 3114 3110 3105 3112 3107 3097 3084 3087 3089 3087 3086 3085 3083 3081 3080 3079 3077 3076 3074 3072 3072 3072 3072 3072 3073 3074 3075 3076 3077 3081 3085 3088 3089 3090 3090 3090 3090 3089 3088 3086 3086 3085 3085 3085 3085 3085 3084 3083
3107 3108 3102 3099 3102 3098 3089 3066 3072 3075 3074 3077 3076 3074 3073 3069 3066 3065 3066 3065 3065 3064 3063 3064 3064 3064 3065 3065 3066 3069 3072 3075 3079 3081 3082 3083 3082 3082 3081 3080 3079 3078 3078 3077 3078 3078 3077 3075 3074
3092 3105 3100 3096 3096 3086 3089 3038 3060 3064 3062 3064 3065 3065 3063 3062 3059 3059 3059 3059 3058 3058 3056 3056 3055 3055 3056 3058 3060 3063 3067 3070 3073 3074 3074 3074 3074 3074 3074 3073 3072 3071 3070 3069 3069 3070 3070 3069 3067
3087 3098 3096 3092 3087 3081 3078 3076 3038 3053 3052 3053 3054 3056 3058 3057 3056 3053 3051 3050 3049 3049 3049 3048 3048 3047 3049 3052 3054 3057 3060 3063 3065 3066 3066 3065 3065 3067 3067 3065 3064 3064 3063 3061 3061 3061 3061 3060 3060
3089 3085 3088 3087 3085 3068 3074 3075 3012 3044 3048 3049 3051 3049 3048 3047 3047 3045 3044 3042 3041 3041 3041 3041 3041 3042 3045 3047 3049 3051 3055 3057 3057 3058 3057 3057 3057 3058 3059 3059 3058 3057 3055 3054 3053 3052 3051 3051 3051
3082 3080 3080 3081 3080 3062 3059 3059 3036 3046 3046 3045 3043 3041 3039 3037 3035 3038 3037 3036 3033 3032 3033 3034 3034 3036 3039 3042 3045 3046 3048 3049 3049 3049 3050 3050 3050 3049 3049 3048 3048 3049 3048 3047 3045 3044 3043 3043 3043
3074 3073 3070 3075 3062 3047 3052 3032 3027 3039 3039 3037 3036 3033 3030 3029 3027 3026 3031 3030 3027 3026 3026 3027 3029 3030 3033 3035 3036 3038 3039 3039 3041 3043 3042 3040 3041 3041 3040 3040 3038 3037 3038 3038 3037 3037 3036 3035 3034
3065 3061 3061 3054 3051 3049 3031 3023 3025 3030 3031 3027 3029 3026 3020 3016 3020 3020 3021 3023 3021 3022 3021 3022 3025 3027 3027 3027 3027 3027 3030 3031 3031 3032 3033 3032 3032 3033 3032 3032 3030 3029 3028 3028 3028 3027 3027 3027 3027
3058 3059 3054 3048 3049 3046 3029 3020 3012 3020 3023 3020 3020 3020 3017 3012 3013 3013 3013 3016 3016 3017 3016 3017 3019 3020 3020 3018 3019 3020 3020 3022 3021 3021 3022 3023 3023 3023 3022 3021 3021 3020 3018 3018 3018 3017 3016 3016 3016
3050 3046 3042 3038 3034 3025 3024 3015 3016 3014 3012 3014 3014 3016 3015 3013 3011 3007 3007 3007 3010 3012 3012 3010 3010 3009 3010 3010 3011 3011 3011 3010 3010 3011 3011 3013 3013 3014 3012 3010 3010 3010 3010 3009 3008 3008 3009 3007 3005
3035 3034 3034 3028 3021 3019 3014 3010 3000 3004 3003 3005 3007 3010 3009 3010 3008 3007 3005 3002 3002 3004 3003 3001 3001 3000 3001 3001 3001 3002 3001 3001 2999 3000 3000 3002 3001 3001 3002 3001 3000 3000 2999 3000 3000 2999 3000 2998 2996